Location: NJAA Observatory
(40.6819°N, 74.8979°W)
Time: 16:27:03
(UTC-04:00)

Iridium 4 - Visible Passes

Search period start: 28 September 2016 00:00
Search period end: 08 October 2016 00:00
Orbit: 773 x 776 km, 86.4° (Epoch: 28 September)

Date Brightness Start Highest point End Pass type
(mag) Time Alt. Az. Time Alt. Az. Time Alt. Az.
28 Sep 8.2 03:47:45 10° ESE 03:50:42 15° ENE 03:53:40 10° NE visible
28 Sep 5.5 05:25:40 10° SSW 05:30:47 59° W 05:35:57 10° N visible
29 Sep 5.7 04:51:13 10° S 04:56:23 74° E 05:01:35 10° N visible
30 Sep 6.8 04:18:01 14° SSE 04:22:06 39° E 04:26:54 10° NNE visible
30 Sep 6.6 05:58:45 10° SW 06:02:52 23° WNW 06:07:00 10° NNW visible
01 Oct 7.8 03:45:01 13° ESE 03:47:58 21° E 03:51:46 10° NNE visible
01 Oct 5.8 05:25:31 24° SW 05:28:16 43° W 05:33:14 10° N visible
02 Oct 8.4 03:12:39 10° E 03:13:56 11° ENE 03:15:15 10° ENE visible
02 Oct 5.4 04:52:18 48° SSW 04:53:48 82° W 04:59:01 10° N visible
03 Oct 6.1 04:18:56 51° ESE 04:19:27 53° E 04:24:31 10° NNE visible
03 Oct 6.9 05:59:24 16° W 06:00:27 17° WNW 06:03:52 10° NW visible
04 Oct 7.3 03:45:26 28° E 03:45:26 28° E 03:49:38 10° NNE visible
04 Oct 6.2 05:25:54 32° WNW 05:25:54 32° WNW 05:30:24 10° NNW visible
05 Oct 8.2 03:11:52 15° ENE 03:11:52 15° ENE 03:14:05 10° NE visible
05 Oct 5.9 04:52:20 49° NW 04:52:20 49° NW 04:56:23 10° N visible
06 Oct 6.5 04:18:40 40° NNE 04:18:40 40° NNE 04:22:02 10° N visible
06 Oct 7.4 05:59:07 12° WNW 05:59:07 12° WNW 06:00:19 10° NW visible
07 Oct 7.5 03:44:58 24° NE 03:44:58 24° NE 03:47:21 10° NNE visible
07 Oct 7.1 05:25:24 19° NW 05:25:24 19° NW 05:27:28 10° NNW visible
